Year,Month,Day,Hour,Minute,Value (Times are PST for temperature in C)
2011,10,16,00,02,6.40
2011,10,16,00,03,6.40
2011,10,16,00,05,6.40
2011,10,16,00,06,6.30
2011,10,16,00,08,6.30
2011,10,16,00,09,6.20
2011,10,16,00,10,6.10
2011,10,16,00,11,6.10
2011,10,16,00,12,6.00
2011,10,16,00,13,5.90
2011,10,16,00,14,5.80
2011,10,16,00,15,5.80
2011,10,16,00,16,5.80
2011,10,16,00,18,5.70
2011,10,16,00,19,5.80
2011,10,16,00,20,5.80
2011,10,16,00,21,5.80
2011,10,16,00,22,5.80
2011,10,16,00,23,5.90
2011,10,16,00,24,5.90
2011,10,16,00,25,5.90
2011,10,16,00,27,6.00
2011,10,16,00,28,6.10
2011,10,16,00,29,6.10
2011,10,16,00,30,6.10
2011,10,16,00,31,6.10
2011,10,16,00,32,6.10
2011,10,16,00,33,6.10
2011,10,16,00,34,6.10
2011,10,16,00,35,6.10
2011,10,16,00,36,6.10
2011,10,16,00,37,6.10
2011,10,16,00,38,6.10
2011,10,16,00,39,6.10
2011,10,16,00,40,6.10
2011,10,16,00,42,5.90
2011,10,16,00,43,5.80
2011,10,16,00,44,5.70
2011,10,16,00,45,5.60
2011,10,16,00,47,5.50
2011,10,16,00,48,5.40
2011,10,16,00,49,5.30
2011,10,16,00,50,5.30
2011,10,16,00,52,5.20
2011,10,16,00,53,5.10
2011,10,16,00,54,5.10
2011,10,16,00,55,5.10
2011,10,16,00,57,5.10
2011,10,16,00,58,5.00
2011,10,16,00,59,5.00
2011,10,16,01,00,4.90
2011,10,16,01,01,4.90
2011,10,16,01,02,4.90
2011,10,16,01,03,4.90
2011,10,16,01,04,4.90
2011,10,16,01,05,4.90
2011,10,16,01,06,4.90
2011,10,16,01,07,4.90
2011,10,16,01,08,4.90
2011,10,16,01,09,4.90
2011,10,16,01,10,4.90
2011,10,16,01,12,4.90
2011,10,16,01,13,4.90
2011,10,16,01,14,5.00
2011,10,16,01,15,5.00
2011,10,16,01,17,5.00
2011,10,16,01,18,5.10
2011,10,16,01,19,5.10
2011,10,16,01,20,5.10
2011,10,16,01,22,5.10
2011,10,16,01,23,5.20
2011,10,16,01,24,5.20
2011,10,16,01,25,5.20
2011,10,16,01,27,5.20
2011,10,16,01,28,5.20
2011,10,16,01,29,5.20
2011,10,16,01,30,5.30
2011,10,16,01,32,5.30
2011,10,16,01,33,5.30
2011,10,16,01,34,5.30
2011,10,16,01,35,5.30
2011,10,16,01,37,5.30
2011,10,16,01,38,5.30
2011,10,16,01,39,5.30
2011,10,16,01,40,5.30
2011,10,16,01,42,5.30
2011,10,16,01,43,5.30
2011,10,16,01,44,5.30
2011,10,16,01,45,5.30
2011,10,16,01,46,5.30
2011,10,16,01,48,5.30
2011,10,16,01,49,5.30
2011,10,16,01,50,5.30
2011,10,16,01,51,5.30
2011,10,16,01,52,5.40
2011,10,16,01,53,5.40
2011,10,16,01,54,5.40
2011,10,16,01,55,5.40
2011,10,16,01,56,5.40
2011,10,16,01,58,5.40
2011,10,16,01,59,5.40
2011,10,16,02,00,5.40
2011,10,16,02,01,5.40
2011,10,16,02,02,5.40
2011,10,16,02,04,5.40
2011,10,16,02,05,5.40
2011,10,16,02,06,5.40
2011,10,16,02,07,5.40
2011,10,16,02,09,5.50
2011,10,16,02,10,5.50
2011,10,16,02,11,5.50
2011,10,16,02,12,5.50
2011,10,16,02,13,5.60
2011,10,16,02,15,5.60
2011,10,16,02,16,5.60
2011,10,16,02,17,5.50
2011,10,16,02,18,5.50
2011,10,16,02,20,5.50
2011,10,16,02,21,5.40
2011,10,16,02,22,5.40
2011,10,16,02,23,5.40
2011,10,16,02,25,5.40
2011,10,16,02,26,5.40
2011,10,16,02,27,5.30
2011,10,16,02,28,5.30
2011,10,16,02,29,5.30
2011,10,16,02,31,5.30
2011,10,16,02,32,5.30
2011,10,16,02,33,5.30
2011,10,16,02,34,5.30
2011,10,16,02,35,5.30
2011,10,16,02,36,5.30
2011,10,16,02,37,5.30
2011,10,16,02,38,5.30
2011,10,16,02,39,5.30
2011,10,16,02,40,5.20
2011,10,16,02,41,5.20
2011,10,16,02,42,5.20
2011,10,16,02,43,5.20
2011,10,16,02,44,5.20
2011,10,16,02,45,5.10
2011,10,16,02,46,5.10
2011,10,16,02,47,5.10
2011,10,16,02,49,5.10
2011,10,16,02,50,5.10
2011,10,16,02,51,5.10
2011,10,16,02,52,5.10
2011,10,16,02,53,5.20
2011,10,16,02,54,5.20
2011,10,16,02,55,5.20
2011,10,16,02,56,5.20
2011,10,16,02,58,5.20
2011,10,16,02,59,5.20
2011,10,16,03,00,5.20
2011,10,16,03,01,5.20
2011,10,16,03,02,5.20
2011,10,16,03,03,5.20
2011,10,16,03,04,5.20
2011,10,16,03,05,5.20
2011,10,16,03,06,5.20
2011,10,16,03,07,5.20
2011,10,16,03,08,5.30
2011,10,16,03,09,5.30
2011,10,16,03,10,5.30
2011,10,16,03,12,5.30
2011,10,16,03,13,5.40
2011,10,16,03,14,5.40
2011,10,16,03,15,5.40
2011,10,16,03,17,5.40
2011,10,16,03,18,5.40
2011,10,16,03,19,5.40
2011,10,16,03,20,5.40
2011,10,16,03,21,5.40
2011,10,16,03,22,5.40
2011,10,16,03,23,5.40
2011,10,16,03,24,5.40
2011,10,16,03,25,5.40
2011,10,16,03,26,5.50
2011,10,16,03,27,5.50
2011,10,16,03,28,5.40
2011,10,16,03,29,5.40
2011,10,16,03,30,5.40
2011,10,16,03,31,5.40
2011,10,16,03,33,5.40
2011,10,16,03,34,5.40
2011,10,16,03,35,5.40
2011,10,16,03,36,5.50
2011,10,16,03,38,5.50
2011,10,16,03,39,5.60
2011,10,16,03,40,5.60
2011,10,16,03,41,5.70
2011,10,16,03,43,5.70
2011,10,16,03,44,5.70
2011,10,16,03,45,5.70
2011,10,16,03,46,5.70
2011,10,16,03,47,5.70
2011,10,16,03,48,5.70
2011,10,16,03,49,5.70
2011,10,16,03,50,5.60
2011,10,16,03,51,5.60
2011,10,16,03,53,5.60
2011,10,16,03,54,5.70
2011,10,16,03,55,5.70
2011,10,16,03,56,5.70
2011,10,16,03,58,5.70
2011,10,16,03,59,5.70
2011,10,16,04,00,5.80
2011,10,16,04,01,5.80
2011,10,16,04,03,5.80
2011,10,16,04,04,5.70
2011,10,16,04,05,5.70
2011,10,16,04,06,5.60
2011,10,16,04,07,5.60
2011,10,16,04,08,5.50
2011,10,16,04,09,5.40
2011,10,16,04,10,5.40
2011,10,16,04,11,5.30
2011,10,16,04,12,5.30
2011,10,16,04,13,5.30
2011,10,16,04,14,5.30
2011,10,16,04,15,5.30
2011,10,16,04,16,5.30
2011,10,16,04,17,5.30
2011,10,16,04,18,5.30
2011,10,16,04,19,5.40
2011,10,16,04,20,5.40
2011,10,16,04,21,5.40
2011,10,16,04,22,5.40
2011,10,16,04,23,5.40
2011,10,16,04,24,5.50
2011,10,16,04,25,5.60
2011,10,16,04,27,5.60
2011,10,16,04,28,5.60
2011,10,16,04,29,5.60
2011,10,16,04,30,5.50
2011,10,16,04,31,5.40
2011,10,16,04,33,5.40
2011,10,16,04,34,5.40
2011,10,16,04,35,5.40
2011,10,16,04,36,5.40
2011,10,16,04,38,5.40
2011,10,16,04,39,5.40
2011,10,16,04,40,5.40
2011,10,16,04,41,5.50
2011,10,16,04,43,5.50
2011,10,16,04,44,5.40
2011,10,16,04,45,5.40
2011,10,16,04,46,5.30
2011,10,16,04,47,5.30
2011,10,16,04,48,5.20
2011,10,16,04,49,5.10
2011,10,16,04,50,5.00
2011,10,16,04,51,4.90
2011,10,16,04,53,4.80
2011,10,16,04,54,4.80
2011,10,16,04,55,4.80
2011,10,16,04,56,4.80
2011,10,16,04,58,4.80
2011,10,16,04,59,4.90
2011,10,16,05,00,5.00
2011,10,16,05,01,5.00
2011,10,16,05,02,5.10
2011,10,16,05,03,5.10
2011,10,16,05,04,5.10
2011,10,16,05,05,5.10
2011,10,16,05,06,5.20
2011,10,16,05,07,5.20
2011,10,16,05,08,5.20
2011,10,16,05,09,5.10
2011,10,16,05,10,5.10
2011,10,16,05,11,5.10
2011,10,16,05,12,5.00
2011,10,16,05,14,5.00
2011,10,16,05,15,5.00
2011,10,16,05,16,5.00
2011,10,16,05,17,5.00
2011,10,16,05,18,5.00
2011,10,16,05,19,4.90
2011,10,16,05,20,4.90
2011,10,16,05,21,4.90
2011,10,16,05,23,4.90
2011,10,16,05,24,4.90
2011,10,16,05,25,5.00
2011,10,16,05,26,5.00
2011,10,16,05,28,5.00
2011,10,16,05,29,5.10
2011,10,16,05,30,5.10
2011,10,16,05,31,5.10
2011,10,16,05,33,5.20
2011,10,16,05,34,5.20
2011,10,16,05,35,5.20
2011,10,16,05,36,5.20
2011,10,16,05,38,5.20
2011,10,16,05,39,5.10
2011,10,16,05,40,5.10
2011,10,16,05,42,4.90
2011,10,16,05,43,4.90
2011,10,16,05,44,4.90
2011,10,16,05,46,4.90
2011,10,16,05,47,4.90
2011,10,16,05,48,4.90
2011,10,16,05,49,4.80
2011,10,16,05,51,4.70
2011,10,16,05,52,4.50
2011,10,16,05,53,4.40
2011,10,16,05,54,4.30
2011,10,16,05,55,4.20
2011,10,16,05,57,4.10
2011,10,16,05,58,3.90
2011,10,16,05,59,3.90
2011,10,16,06,00,3.90
2011,10,16,06,01,3.80
2011,10,16,06,02,3.80
2011,10,16,06,03,3.80
2011,10,16,06,04,3.90
2011,10,16,06,06,3.90
2011,10,16,06,07,4.00
2011,10,16,06,08,4.00
2011,10,16,06,09,4.10
2011,10,16,06,10,4.10
2011,10,16,06,11,4.20
2011,10,16,06,12,4.30
2011,10,16,06,13,4.40
2011,10,16,06,14,4.50
2011,10,16,06,16,4.60
2011,10,16,06,17,4.80
2011,10,16,06,18,4.80
2011,10,16,06,19,4.90
2011,10,16,06,20,4.90
2011,10,16,06,21,5.10
2011,10,16,06,22,5.10
2011,10,16,06,23,5.20
2011,10,16,06,24,5.20
2011,10,16,06,26,5.20
2011,10,16,06,27,5.30
2011,10,16,06,28,5.30
2011,10,16,06,29,5.40
2011,10,16,06,30,5.40
2011,10,16,06,31,5.40
2011,10,16,06,32,5.40
2011,10,16,06,33,5.50
2011,10,16,06,35,5.50
2011,10,16,06,36,5.40
2011,10,16,06,37,5.40
2011,10,16,06,38,5.40
2011,10,16,06,39,5.40
2011,10,16,06,40,5.30
2011,10,16,06,41,5.30
2011,10,16,06,42,5.30
2011,10,16,06,43,5.30
2011,10,16,06,44,5.30
2011,10,16,06,46,5.30
2011,10,16,06,47,5.40
2011,10,16,06,48,5.40
2011,10,16,06,49,5.30
2011,10,16,06,51,5.30
2011,10,16,06,52,5.30
2011,10,16,06,53,5.20
2011,10,16,06,54,5.20
2011,10,16,06,55,5.20
2011,10,16,06,56,5.20
2011,10,16,06,57,5.20
2011,10,16,06,58,5.20
2011,10,16,06,59,5.20
2011,10,16,07,00,5.20
2011,10,16,07,01,5.20
2011,10,16,07,02,5.30
2011,10,16,07,03,5.30
2011,10,16,07,05,5.30
2011,10,16,07,06,5.40
2011,10,16,07,07,5.40
2011,10,16,07,08,5.40
2011,10,16,07,09,5.50
2011,10,16,07,11,5.50
2011,10,16,07,12,5.50
2011,10,16,07,13,5.50
2011,10,16,07,14,5.40
2011,10,16,07,16,5.30
2011,10,16,07,17,5.20
2011,10,16,07,18,5.10
2011,10,16,07,19,5.10
2011,10,16,07,21,5.00
2011,10,16,07,22,5.00
2011,10,16,07,23,5.00
2011,10,16,07,24,5.00
2011,10,16,07,25,5.00
2011,10,16,07,26,5.00
2011,10,16,07,27,5.00
2011,10,16,07,28,4.90
2011,10,16,07,29,4.80
2011,10,16,07,31,4.80
2011,10,16,07,32,4.70
2011,10,16,07,33,4.60
2011,10,16,07,34,4.50
2011,10,16,07,35,4.50
2011,10,16,07,36,4.50
2011,10,16,07,37,4.60
2011,10,16,07,38,4.60
2011,10,16,07,40,4.70
2011,10,16,07,41,4.80
2011,10,16,07,42,4.80
2011,10,16,07,43,4.90
2011,10,16,07,45,4.90
2011,10,16,07,46,5.10
2011,10,16,07,47,5.10
2011,10,16,07,48,5.10
2011,10,16,07,49,5.20
2011,10,16,07,50,5.20
2011,10,16,07,51,5.20
2011,10,16,07,52,5.20
2011,10,16,07,54,5.30
2011,10,16,07,55,5.30
2011,10,16,07,56,5.30
2011,10,16,07,57,5.30
2011,10,16,07,58,5.30
2011,10,16,08,00,5.30
2011,10,16,08,01,5.30
2011,10,16,08,02,5.30
2011,10,16,08,03,5.30
2011,10,16,08,05,5.30
2011,10,16,08,06,5.30
2011,10,16,08,07,5.30
2011,10,16,08,08,5.20
2011,10,16,08,10,5.10
2011,10,16,08,11,4.90
2011,10,16,08,12,4.70
2011,10,16,08,13,4.70
2011,10,16,08,15,4.60
2011,10,16,08,16,4.40
2011,10,16,08,17,4.30
2011,10,16,08,18,4.30
2011,10,16,08,20,4.30
2011,10,16,08,21,4.30
2011,10,16,08,22,4.40
2011,10,16,08,23,4.50
2011,10,16,08,24,4.60
2011,10,16,08,26,4.70
2011,10,16,08,27,4.80
2011,10,16,08,28,4.90
2011,10,16,08,30,5.00
2011,10,16,08,31,5.20
2011,10,16,08,32,5.30
2011,10,16,08,34,5.40
2011,10,16,08,35,5.60
2011,10,16,08,36,5.60
2011,10,16,08,37,5.70
2011,10,16,08,38,5.80
2011,10,16,08,39,5.90
2011,10,16,08,40,5.90
2011,10,16,08,41,6.00
2011,10,16,08,42,6.10
2011,10,16,08,43,6.20
2011,10,16,08,44,6.20
2011,10,16,08,45,6.30
2011,10,16,08,46,6.40
2011,10,16,08,48,6.40
2011,10,16,08,49,6.50
2011,10,16,08,50,6.60
2011,10,16,08,51,6.60
2011,10,16,08,52,6.70
2011,10,16,08,54,6.70
2011,10,16,08,55,6.80
2011,10,16,08,56,6.80
2011,10,16,08,57,6.80
2011,10,16,08,59,6.90
2011,10,16,09,00,6.90
2011,10,16,09,01,6.90
2011,10,16,09,02,7.00
2011,10,16,09,04,7.10
2011,10,16,09,05,7.10
2011,10,16,09,06,7.10
2011,10,16,09,07,7.20
2011,10,16,09,08,7.20
2011,10,16,09,10,7.20
2011,10,16,09,11,7.30
2011,10,16,09,12,7.30
2011,10,16,09,14,7.30
2011,10,16,09,15,7.40
2011,10,16,09,16,7.50
2011,10,16,09,17,7.60
2011,10,16,09,19,7.60
2011,10,16,09,20,7.70
2011,10,16,09,21,7.70
2011,10,16,09,22,7.70
2011,10,16,09,23,7.80
2011,10,16,09,24,7.80
2011,10,16,09,25,7.80
2011,10,16,09,26,7.90
2011,10,16,09,27,7.90
2011,10,16,09,28,7.90
2011,10,16,09,29,8.00
2011,10,16,09,30,8.10
2011,10,16,09,31,8.10
2011,10,16,09,32,8.10
2011,10,16,09,33,8.10
2011,10,16,09,34,8.20
2011,10,16,09,35,8.20
2011,10,16,09,36,8.20
2011,10,16,09,37,8.20
2011,10,16,09,38,8.30
2011,10,16,09,39,8.30
2011,10,16,09,41,8.30
2011,10,16,09,42,8.40
2011,10,16,09,43,8.40
2011,10,16,09,45,8.40
2011,10,16,09,46,8.40
2011,10,16,09,47,8.50
2011,10,16,09,48,8.50
2011,10,16,09,49,8.50
2011,10,16,09,50,8.60
2011,10,16,09,51,8.60
2011,10,16,09,53,8.60
2011,10,16,09,54,8.60
2011,10,16,09,55,8.60
2011,10,16,09,56,8.60
2011,10,16,09,58,8.60
2011,10,16,09,59,8.70
2011,10,16,10,00,8.70
2011,10,16,10,01,8.70
2011,10,16,10,02,8.70
2011,10,16,10,03,8.70
2011,10,16,10,04,8.80
2011,10,16,10,05,8.80
2011,10,16,10,06,8.80
2011,10,16,10,07,8.80
2011,10,16,10,08,8.80
2011,10,16,10,09,8.90
2011,10,16,10,11,8.90
2011,10,16,10,12,9.00
2011,10,16,10,13,9.00
2011,10,16,10,14,9.00
2011,10,16,10,15,9.00
2011,10,16,10,16,9.10
2011,10,16,10,17,9.10
2011,10,16,10,18,9.10
2011,10,16,10,19,9.20
2011,10,16,10,20,9.20
2011,10,16,10,21,9.20
2011,10,16,10,22,9.20
2011,10,16,10,24,9.20
2011,10,16,10,25,9.20
2011,10,16,10,26,9.20
2011,10,16,10,27,9.20
2011,10,16,10,29,9.30
2011,10,16,10,30,9.30
2011,10,16,10,31,9.30
2011,10,16,10,32,9.40
2011,10,16,10,33,9.40
2011,10,16,10,35,9.40
2011,10,16,10,36,9.50
2011,10,16,10,37,9.50
2011,10,16,10,38,9.50
2011,10,16,10,40,9.50
2011,10,16,10,41,9.50
2011,10,16,10,42,9.50
2011,10,16,10,43,9.60
2011,10,16,10,45,9.60
2011,10,16,10,46,9.60
2011,10,16,10,47,9.60
2011,10,16,10,49,9.60
2011,10,16,10,50,9.60
2011,10,16,10,51,9.60
2011,10,16,10,52,9.60
2011,10,16,10,53,9.60
2011,10,16,10,54,9.60
2011,10,16,10,55,9.70
2011,10,16,10,56,9.70
2011,10,16,10,58,9.70
2011,10,16,10,59,9.70
2011,10,16,11,00,9.70
2011,10,16,11,01,9.70
2011,10,16,11,03,9.70
2011,10,16,11,04,9.70
2011,10,16,11,05,9.60
2011,10,16,11,06,9.60
2011,10,16,11,07,9.60
2011,10,16,11,08,9.60
2011,10,16,11,10,9.60
2011,10,16,11,11,9.60
2011,10,16,11,12,9.60
2011,10,16,11,14,9.70
2011,10,16,11,15,9.70
2011,10,16,11,16,9.70
2011,10,16,11,17,9.60
2011,10,16,11,18,9.60
2011,10,16,11,19,9.70
2011,10,16,11,20,9.70
2011,10,16,11,21,9.70
2011,10,16,11,22,9.70
2011,10,16,11,23,9.70
2011,10,16,11,24,9.70
2011,10,16,11,25,9.70
2011,10,16,11,26,9.70
2011,10,16,11,27,9.70
2011,10,16,11,28,9.70
2011,10,16,11,29,9.70
2011,10,16,11,31,9.70
2011,10,16,11,32,9.80
2011,10,16,11,33,9.80
2011,10,16,11,34,9.80
2011,10,16,11,35,9.80
2011,10,16,11,36,9.90
2011,10,16,11,37,9.90
2011,10,16,11,38,9.90
2011,10,16,11,39,9.90
2011,10,16,11,40,9.90
2011,10,16,11,41,9.90
2011,10,16,11,42,10.00
2011,10,16,11,43,10.00
2011,10,16,11,44,10.10
2011,10,16,11,45,10.10
2011,10,16,11,46,10.10
2011,10,16,11,47,10.20
2011,10,16,11,48,10.20
2011,10,16,11,50,10.20
2011,10,16,11,51,10.20
2011,10,16,11,52,10.20
2011,10,16,11,53,10.30
2011,10,16,11,55,10.30
2011,10,16,11,56,10.30
2011,10,16,11,57,10.20
2011,10,16,11,58,10.20
2011,10,16,11,59,10.20
2011,10,16,12,00,10.30
2011,10,16,12,01,10.30
2011,10,16,12,02,10.30
2011,10,16,12,03,10.30
2011,10,16,12,04,10.30
2011,10,16,12,05,10.30
2011,10,16,12,06,10.30
2011,10,16,12,07,10.30
2011,10,16,12,08,10.40
2011,10,16,12,10,10.40
2011,10,16,12,11,10.40
2011,10,16,12,12,10.40
2011,10,16,12,13,10.40
2011,10,16,12,15,10.40
2011,10,16,12,16,10.40
2011,10,16,12,17,10.50
2011,10,16,12,18,10.50
2011,10,16,12,19,10.50
2011,10,16,12,20,10.50
2011,10,16,12,21,10.50
2011,10,16,12,22,10.50
2011,10,16,12,24,10.60
2011,10,16,12,25,10.60
2011,10,16,12,26,10.70
2011,10,16,12,27,10.70
2011,10,16,12,28,10.80
2011,10,16,12,30,10.80
2011,10,16,12,31,10.90
2011,10,16,12,32,11.00
2011,10,16,12,33,11.00
2011,10,16,12,35,11.10
2011,10,16,12,36,11.10
2011,10,16,12,37,11.10
2011,10,16,12,38,11.10
2011,10,16,12,39,11.00
2011,10,16,12,40,10.90
2011,10,16,12,41,10.90
2011,10,16,12,42,10.90
2011,10,16,12,44,10.90
2011,10,16,12,45,10.80
2011,10,16,12,46,10.70
2011,10,16,12,47,10.60
2011,10,16,12,49,10.60
2011,10,16,12,50,10.50
2011,10,16,12,51,10.50
2011,10,16,12,52,10.50
2011,10,16,12,53,10.60
2011,10,16,12,54,10.60
2011,10,16,12,55,10.70
2011,10,16,12,56,10.70
2011,10,16,12,57,10.80
2011,10,16,12,59,10.80
2011,10,16,13,00,10.90
2011,10,16,13,01,10.90
2011,10,16,13,02,10.80
2011,10,16,13,04,10.80
2011,10,16,13,05,10.80
2011,10,16,13,06,10.80
2011,10,16,13,08,10.90
2011,10,16,13,09,11.00
2011,10,16,13,10,11.00
2011,10,16,13,11,10.90
2011,10,16,13,12,10.90
2011,10,16,13,13,10.80
2011,10,16,13,14,10.80
2011,10,16,13,15,10.70
2011,10,16,13,16,10.70
2011,10,16,13,17,10.80
2011,10,16,13,18,10.80
2011,10,16,13,19,10.90
2011,10,16,13,20,10.90
2011,10,16,13,22,11.00
2011,10,16,13,23,11.10
2011,10,16,13,24,11.10
2011,10,16,13,25,11.10
2011,10,16,13,27,11.10
2011,10,16,13,28,11.10
2011,10,16,13,29,11.10
2011,10,16,13,30,11.10
2011,10,16,13,31,11.20
2011,10,16,13,33,11.20
2011,10,16,13,34,11.30
2011,10,16,13,35,11.40
2011,10,16,13,37,11.40
2011,10,16,13,38,11.40
2011,10,16,13,39,11.40
2011,10,16,13,41,11.40
2011,10,16,13,42,11.40
2011,10,16,13,43,11.40
2011,10,16,13,45,11.40
2011,10,16,13,46,11.40
2011,10,16,13,47,11.40
2011,10,16,13,49,11.40
2011,10,16,13,50,11.40
2011,10,16,13,51,11.40
2011,10,16,13,52,11.40
2011,10,16,13,54,11.50
2011,10,16,13,55,11.60
2011,10,16,13,56,11.60
2011,10,16,13,57,11.60
2011,10,16,13,59,11.60
2011,10,16,14,00,11.60
2011,10,16,14,01,11.60
2011,10,16,14,02,11.60
2011,10,16,14,03,11.60
2011,10,16,14,04,11.60
2011,10,16,14,05,11.50
2011,10,16,14,06,11.40
2011,10,16,14,07,11.40
2011,10,16,14,09,11.30
2011,10,16,14,10,11.30
2011,10,16,14,11,11.40
2011,10,16,14,12,11.40
2011,10,16,14,13,11.50
2011,10,16,14,15,11.60
2011,10,16,14,16,11.60
2011,10,16,14,17,11.70
2011,10,16,14,18,11.70
2011,10,16,14,20,11.80
2011,10,16,14,21,11.80
2011,10,16,14,22,11.80
2011,10,16,14,23,11.80
2011,10,16,14,24,11.80
2011,10,16,14,26,11.80
2011,10,16,14,27,11.90
2011,10,16,14,28,11.90
2011,10,16,14,29,11.80
2011,10,16,14,30,11.80
2011,10,16,14,32,11.80
2011,10,16,14,33,11.90
2011,10,16,14,34,11.90
2011,10,16,14,35,11.90
2011,10,16,14,36,11.90
2011,10,16,14,37,11.90
2011,10,16,14,38,11.90
2011,10,16,14,39,11.80
2011,10,16,14,40,11.80
2011,10,16,14,42,11.70
2011,10,16,14,43,11.70
2011,10,16,14,44,11.70
2011,10,16,14,45,11.80
2011,10,16,14,46,11.70
2011,10,16,14,48,11.70
2011,10,16,14,49,11.80
2011,10,16,14,50,11.80
2011,10,16,14,51,11.80
2011,10,16,14,52,11.80
2011,10,16,14,53,11.80
2011,10,16,14,54,11.80
2011,10,16,14,55,11.80
2011,10,16,14,56,11.80
2011,10,16,14,58,11.80
2011,10,16,14,59,11.90
2011,10,16,15,00,11.90
2011,10,16,15,02,11.90
2011,10,16,15,03,12.00
2011,10,16,15,04,12.10
2011,10,16,15,05,12.20
2011,10,16,15,07,12.20
2011,10,16,15,08,12.20
2011,10,16,15,09,12.20
2011,10,16,15,10,12.20
2011,10,16,15,11,12.20
2011,10,16,15,12,12.30
2011,10,16,15,13,12.30
2011,10,16,15,14,12.30
2011,10,16,15,15,12.40
2011,10,16,15,16,12.40
2011,10,16,15,17,12.50
2011,10,16,15,19,12.50
2011,10,16,15,20,12.40
2011,10,16,15,21,12.40
2011,10,16,15,22,12.40
2011,10,16,15,24,12.30
2011,10,16,15,25,12.40
2011,10,16,15,26,12.40
2011,10,16,15,27,12.40
2011,10,16,15,29,12.30
2011,10,16,15,30,12.30
2011,10,16,15,31,12.30
2011,10,16,15,32,12.40
2011,10,16,15,33,12.40
2011,10,16,15,34,12.50
2011,10,16,15,35,12.40
2011,10,16,15,36,12.40
2011,10,16,15,37,12.40
2011,10,16,15,39,12.30
2011,10,16,15,40,12.30
2011,10,16,15,41,12.30
2011,10,16,15,42,12.40
2011,10,16,15,43,12.40
2011,10,16,15,44,12.40
2011,10,16,15,45,12.40
2011,10,16,15,46,12.40
2011,10,16,15,47,12.40
2011,10,16,15,49,12.40
2011,10,16,15,50,12.50
2011,10,16,15,51,12.50
2011,10,16,15,52,12.50
2011,10,16,15,53,12.50
2011,10,16,15,55,12.40
2011,10,16,15,56,12.40
2011,10,16,15,57,12.50
2011,10,16,15,58,12.60
2011,10,16,15,59,12.70
2011,10,16,16,00,12.70
2011,10,16,16,01,12.70
2011,10,16,16,02,12.70
2011,10,16,16,03,12.60
2011,10,16,16,05,12.70
2011,10,16,16,06,12.70
2011,10,16,16,07,12.70
2011,10,16,16,08,12.70
2011,10,16,16,09,12.70
2011,10,16,16,11,12.70
2011,10,16,16,12,12.60
2011,10,16,16,13,12.40
2011,10,16,16,14,12.40
2011,10,16,16,15,12.40
2011,10,16,16,16,12.40
2011,10,16,16,17,12.40
2011,10,16,16,18,12.40
2011,10,16,16,19,12.30
2011,10,16,16,20,12.30
2011,10,16,16,22,12.30
2011,10,16,16,23,12.20
2011,10,16,16,24,12.20
2011,10,16,16,25,12.20
2011,10,16,16,27,12.20
2011,10,16,16,28,12.10
2011,10,16,16,29,12.10
2011,10,16,16,30,12.10
2011,10,16,16,32,12.20
2011,10,16,16,33,12.20
2011,10,16,16,34,12.20
2011,10,16,16,35,12.20
2011,10,16,16,37,12.20
2011,10,16,16,38,12.20
2011,10,16,16,39,12.30
2011,10,16,16,41,12.30
2011,10,16,16,42,12.20
2011,10,16,16,43,12.20
2011,10,16,16,44,12.20
2011,10,16,16,45,12.20
2011,10,16,16,46,12.10
2011,10,16,16,47,12.10
2011,10,16,16,48,12.10
2011,10,16,16,49,12.10
2011,10,16,16,50,12.10
2011,10,16,16,52,12.10
2011,10,16,16,53,12.10
2011,10,16,16,54,12.10
2011,10,16,16,55,12.10
2011,10,16,16,56,12.10
2011,10,16,16,57,12.10
2011,10,16,16,58,12.10
2011,10,16,16,59,12.10
2011,10,16,17,00,12.10
2011,10,16,17,01,12.10
2011,10,16,17,02,12.10
2011,10,16,17,03,12.10
2011,10,16,17,04,12.10
2011,10,16,17,05,12.10
2011,10,16,17,06,12.10
2011,10,16,17,08,12.10
2011,10,16,17,09,12.10
2011,10,16,17,10,12.10
2011,10,16,17,11,12.10
2011,10,16,17,13,12.10
2011,10,16,17,14,12.10
2011,10,16,17,15,12.10
2011,10,16,17,17,12.00
2011,10,16,17,18,11.90
2011,10,16,17,19,11.90
2011,10,16,17,20,11.90
2011,10,16,17,22,11.90
2011,10,16,17,23,11.80
2011,10,16,17,24,11.70
2011,10,16,17,25,11.70
2011,10,16,17,26,11.60
2011,10,16,17,27,11.60
2011,10,16,17,28,11.60
2011,10,16,17,29,11.60
2011,10,16,17,30,11.50
2011,10,16,17,31,11.50
2011,10,16,17,33,11.40
2011,10,16,17,34,11.50
2011,10,16,17,35,11.40
2011,10,16,17,36,11.40
2011,10,16,17,38,11.40
2011,10,16,17,39,11.30
2011,10,16,17,40,11.20
2011,10,16,17,41,11.20
2011,10,16,17,42,11.20
2011,10,16,17,43,11.10
2011,10,16,17,44,11.10
2011,10,16,17,45,11.10
2011,10,16,17,46,11.10
2011,10,16,17,47,11.10
2011,10,16,17,49,11.10
2011,10,16,17,50,11.10
2011,10,16,17,51,11.10
2011,10,16,17,52,11.10
2011,10,16,17,53,11.10
2011,10,16,17,54,11.10
2011,10,16,17,55,11.10
2011,10,16,17,56,11.10
2011,10,16,17,57,11.10
2011,10,16,17,58,11.00
2011,10,16,17,59,11.00
2011,10,16,18,00,10.90
2011,10,16,18,01,10.90
2011,10,16,18,02,10.80
2011,10,16,18,04,10.80
2011,10,16,18,05,10.70
2011,10,16,18,06,10.60
2011,10,16,18,07,10.60
2011,10,16,18,09,10.50
2011,10,16,18,10,10.40
2011,10,16,18,11,10.30
2011,10,16,18,12,10.30
2011,10,16,18,13,10.30
2011,10,16,18,15,10.20
2011,10,16,18,16,10.10
2011,10,16,18,17,10.10
2011,10,16,18,18,10.00
2011,10,16,18,20,10.00
2011,10,16,18,21,9.90
2011,10,16,18,22,9.90
2011,10,16,18,23,9.80
2011,10,16,18,25,9.80
2011,10,16,18,26,9.70
2011,10,16,18,27,9.70
2011,10,16,18,29,9.70
2011,10,16,18,30,9.60
2011,10,16,18,31,9.60
2011,10,16,18,32,9.60
2011,10,16,18,33,9.60
2011,10,16,18,34,9.50
2011,10,16,18,35,9.40
2011,10,16,18,36,9.40
2011,10,16,18,37,9.40
2011,10,16,18,39,9.40
2011,10,16,18,40,9.30
2011,10,16,18,41,9.30
2011,10,16,18,42,9.30
2011,10,16,18,43,9.30
2011,10,16,18,44,9.20
2011,10,16,18,45,9.20
2011,10,16,18,46,9.20
2011,10,16,18,47,9.20
2011,10,16,18,49,9.10
2011,10,16,18,50,9.10
2011,10,16,18,51,9.10
2011,10,16,18,53,9.10
2011,10,16,18,54,9.00
2011,10,16,18,55,8.90
2011,10,16,18,56,8.90
2011,10,16,18,58,8.90
2011,10,16,18,59,8.80
2011,10,16,19,00,8.80
2011,10,16,19,01,8.80
2011,10,16,19,03,8.80
2011,10,16,19,04,8.80
2011,10,16,19,05,8.80
2011,10,16,19,06,8.70
2011,10,16,19,07,8.70
2011,10,16,19,08,8.70
2011,10,16,19,09,8.70
2011,10,16,19,10,8.70
2011,10,16,19,12,8.70
2011,10,16,19,13,8.70
2011,10,16,19,14,8.60
2011,10,16,19,15,8.70
2011,10,16,19,17,8.60
2011,10,16,19,18,8.60
2011,10,16,19,19,8.60
2011,10,16,19,20,8.60
2011,10,16,19,21,8.60
2011,10,16,19,22,8.60
2011,10,16,19,23,8.60
2011,10,16,19,24,8.60
2011,10,16,19,25,8.60
2011,10,16,19,26,8.60
2011,10,16,19,27,8.60
2011,10,16,19,28,8.50
2011,10,16,19,29,8.50
2011,10,16,19,30,8.50
2011,10,16,19,31,8.40
2011,10,16,19,32,8.40
2011,10,16,19,33,8.40
2011,10,16,19,34,8.40
2011,10,16,19,36,8.40
2011,10,16,19,37,8.40
2011,10,16,19,38,8.40
2011,10,16,19,39,8.40
2011,10,16,19,40,8.40
2011,10,16,19,41,8.30
2011,10,16,19,42,8.30
2011,10,16,19,43,8.30
2011,10,16,19,44,8.30
2011,10,16,19,46,8.30
2011,10,16,19,47,8.30
2011,10,16,19,48,8.30
2011,10,16,19,49,8.30
2011,10,16,19,50,8.30
2011,10,16,19,51,8.30
2011,10,16,19,52,8.20
2011,10,16,19,53,8.20
2011,10,16,19,54,8.20
2011,10,16,19,55,8.20
2011,10,16,19,56,8.20
2011,10,16,19,57,8.20
2011,10,16,19,58,8.20
2011,10,16,19,59,8.20
2011,10,16,20,00,8.20
2011,10,16,20,02,8.20
2011,10,16,20,03,8.20
2011,10,16,20,04,8.20
2011,10,16,20,05,8.20
2011,10,16,20,07,8.20
2011,10,16,20,08,8.20
2011,10,16,20,09,8.20
2011,10,16,20,10,8.20
2011,10,16,20,11,8.20
2011,10,16,20,12,8.20
2011,10,16,20,13,8.20
2011,10,16,20,14,8.20
2011,10,16,20,15,8.20
2011,10,16,20,17,8.20
2011,10,16,20,18,8.20
2011,10,16,20,19,8.20
2011,10,16,20,20,8.10
2011,10,16,20,21,8.20
2011,10,16,20,22,8.20
2011,10,16,20,23,8.20
2011,10,16,20,24,8.20
2011,10,16,20,25,8.20
2011,10,16,20,26,8.10
2011,10,16,20,27,8.10
2011,10,16,20,28,8.10
2011,10,16,20,29,8.10
2011,10,16,20,31,8.10
2011,10,16,20,32,8.10
2011,10,16,20,33,8.10
2011,10,16,20,34,8.10
2011,10,16,20,36,8.10
2011,10,16,20,37,8.10
2011,10,16,20,38,8.10